sat.trackr.live / text

‹ back to catalog

STARLINK-34299

NORAD 64383 · 2025-127P

PAYLOAD ACTIVE UNKNOWN

§ Identity

Operator
Country
US
Launch date
2025-06-13
Launch site
AFETR
Launch vehicle
Mass (kg)
RCS (m²)

Purposes: comms

External: N2YO · Heavens-Above · Gunter

§ Orbital elements

Epoch: 2026-09-20T00:35:36.017088Z

Period
94.27 min
Inclination
43.0017°
Eccentricity
0.0001013
Mean motion
15.27579968 rev/d
Perigee alt
482.4 km
Apogee alt
483.7 km
Semi-major
6,861.2 km
B*
3.1819e-4
RAAN
162.6664°
Arg perigee
264.8759°
Mean anomaly
95.1977°
Rev number
7,213

§ Raw data

STARLINK-342991 64383U 25127P   26263.02472242  .00008504  00000+0  31819-3 0  99942 64383  43.0017 162.6664 0001013 264.8759  95.1977 15.27579968 72138

JSON: /api/v1/satellites/64383 · /tle

For live sub-satellite position, see the globe view (requires WebGL).

§ Visibility from observer

Set your observer location to see the next 7 days of passes ≥ 10°. The values pass through the URL so the page stays shareable.

No JS? Fill the form by hand. The geolocation button needs JavaScript.